Tracking 32420 objects as of 9-Dec-2025
HD Live streaming from Space Station
objects crossing your sky now

STARLINK-31971

Track STARLINK-31971 now!
10-day predictions
STARLINK-31971 is classified as:


NORAD ID: 59934
Int'l Code: 2024-106N
Perigee: 489.3 km
Apogee: 491.1 km
Inclination: 43.0 °
Period: 94.3 minutes
Semi major axis: 6861 km
RCS: Unknown
Launch date: June 1, 2024
Source: United States (US)
Launch site: AIR FORCE EASTERN TEST RANGE (AFETR)
Your satellite tracking list
Your tracking list is empty




NASA's NSSDC Master Catalog

Two Line Element Set (TLE):
1 59934U 24106N   25342.77383229 -.00000881  00000-0 -22480-4 0  9999
2 59934  43.0024 122.7728 0001314 296.1897  63.8820 15.27574329 86539
Source of the keplerian elements: AFSPC